| time (UTC) | temp F | wind direction | speed knots | gust knots | rain 1hr in | rain 24hr in | rain mn in | humidity % | barometer mb |
| 20260503211535 | 62 | 215 | 3.5 | 8.7 | 0.00 | 0.00 | 0.00 | 68 | 1014.4 |
| 20260503210024 | 64 | 280 | 2.6 | 7.8 | 0.00 | 0.00 | 0.00 | 64 | 1014.4 |
| 20260503204528 | 64 | 251 | 3.5 | 8.7 | 0.00 | 0.00 | 0.00 | 64 | 1014.4 |
| 20260503203008 | 64 | 256 | 2.6 | 7.8 | 0.00 | 0.00 | 0.00 | 66 | 1014.6 |
| 20260503201511 | 63 | 265 | 3.5 | 9.6 | 0.00 | 0.00 | 0.00 | 68 | 1014.6 |
| 20260503200009 | 62 | 274 | 3.5 | 11.3 | 0.00 | 0.00 | 0.00 | 67 | 1014.8 |
| 20260503194507 | 64 | 229 | 2.6 | 8.7 | 0.00 | 0.00 | 0.00 | 63 | 1014.9 |
| 20260503193030 | 64 | 246 | 3.5 | 9.6 | 0.00 | 0.00 | 0.00 | 61 | 1015.0 |
| 20260503191514 | 64 | 207 | 1.7 | 7.0 | 0.00 | 0.00 | 0.00 | 60 | 1015.0 |
| 20260503190025 | 64 | 287 | 2.6 | 7.8 | 0.00 | 0.00 | 0.00 | 59 | 1015.1 |
| 20260503184518 | 64 | 220 | 3.5 | 7.0 | 0.00 | 0.00 | 0.00 | 55 | 1015.1 |
| 20260503183017 | 63 | 234 | 2.6 | 6.1 | 0.00 | 0.00 | 0.00 | 55 | 1015.2 |
| 20260503181519 | 63 | 252 | 1.7 | 5.2 | 0.00 | 0.00 | 0.00 | 54 | 1015.3 |
| 20260503180020 | 61 | 221 | 1.7 | 6.1 | 0.00 | 0.00 | 0.00 | 58 | 1015.3 |
| 20260503174527 | 61 | 261 | 1.7 | 7.0 | 0.00 | 0.00 | 0.00 | 60 | 1015.4 |
| 20260503173022 | 60 | 263 | 0.9 | 7.0 | 0.00 | 0.00 | 0.00 | 67 | 1015.4 |
| 20260503171522 | 60 | 277 | 2.6 | 5.2 | 0.00 | 0.00 | 0.00 | 67 | 1015.3 |
| 20260503081538 | 56 | 5 | 0.0 | 1.7 | 0.00 | 0.00 | 0.00 | 81 | 1013.6 |
| 20260503071531 | 57 | 329 | 0.9 | 2.6 | 0.00 | 0.00 | 0.00 | 80 | 1013.5 |
| 20260503054530 | 56 | 33 | 0.9 | 1.7 | 0.00 | 0.00 | 0.00 | 82 | 1013.1 |
| 20260503053024 | 56 | 315 | 0.0 | 2.6 | 0.00 | 0.00 | 0.00 | 82 | 1013.1 |
| 20260503051519 | 56 | 296 | 0.9 | 3.5 | 0.00 | 0.00 | 0.00 | 83 | 1013.0 |
| 20260503050025 | 55 | 315 | 0.9 | 2.6 | 0.00 | 0.00 | 0.00 | 83 | 1012.8 |
| 20260503044515 | 55 | 323 | 0.9 | 2.6 | 0.00 | 0.00 | 0.00 | 83 | 1012.7 |
| 20260503043014 | 55 | 340 | 0.0 | 2.6 | 0.00 | 0.00 | 0.00 | 83 | 1012.5 |
| 20260503041518 | 55 | 352 | 0.0 | 1.7 | 0.00 | 0.00 | 0.00 | 82 | 1012.6 |
| 20260503040021 | 56 | 51 | 0.0 | 2.6 | 0.00 | 0.00 | 0.00 | 82 | 1012.6 |
| 20260503034519 | 56 | 35 | 0.0 | 1.7 | 0.00 | 0.00 | 0.00 | 81 | 1012.4 |
| 20260503033026 | 56 | 342 | 0.9 | 1.7 | 0.00 | 0.00 | 0.00 | 81 | 1012.4 |
| 20260503031520 | 57 | 5 | 0.9 | 3.5 | 0.00 | 0.00 | 0.00 | 82 | 1012.4 |
| 20260503030021 | 57 | 294 | 1.7 | 5.2 | 0.00 | 0.00 | 0.00 | 82 | 1012.3 |
| 20260503024523 | 57 | 232 | 1.7 | 6.1 | 0.00 | 0.00 | 0.00 | 81 | 1012.1 |
| 20260503023025 | 57 | 276 | 1.7 | 5.2 | 0.00 | 0.00 | 0.00 | 80 | 1011.8 |
| 20260503021504 | 58 | 298 | 2.6 | 7.8 | 0.00 | 0.00 | 0.00 | 78 | 1012.0 |
| 20260503020004 | 59 | 269 | 0.9 | 7.0 | 0.00 | 0.00 | 0.00 | 76 | 1012.0 |
| 20260503014506 | 59 | 226 | 1.7 | 8.7 | 0.00 | 0.00 | 0.00 | 75 | 1012.1 |
| 20260503013006 | 60 | 264 | 1.7 | 7.8 | 0.00 | 0.00 | 0.00 | 75 | 1012.1 |
| 20260503011506 | 60 | 284 | 3.5 | 6.1 | 0.00 | 0.00 | 0.00 | 74 | 1012.2 |
| 20260503010009 | 60 | 279 | 2.6 | 8.7 | 0.00 | 0.00 | 0.00 | 75 | 1012.2 |
| 20260503004507 | 60 | 260 | 4.3 | 8.7 | 0.00 | 0.00 | 0.00 | 74 | 1012.3 |
| 20260503003020 | 61 | 263 | 3.5 | 7.8 | 0.00 | 0.00 | 0.00 | 72 | 1012.3 |
| 20260503001520 | 61 | 273 | 5.2 | 8.7 | 0.00 | 0.00 | 0.00 | 70 | 1012.2 |
| 20260503000016 | 62 | 288 | 3.5 | 7.0 | 0.00 | 0.00 | 0.00 | 70 | 1012.3 |
| 20260502234534 | 63 | 254 | 4.3 | 7.8 | 0.00 | 0.00 | 0.00 | 69 | 1012.3 |
| 20260502233020 | 63 | 259 | 2.6 | 8.7 | 0.00 | 0.00 | 0.00 | 69 | 1012.2 |
| 20260502231516 | 62 | 261 | 5.2 | 9.6 | 0.00 | 0.00 | 0.00 | 70 | 1012.7 |
| 20260502230018 | 62 | 275 | 3.5 | 8.7 | 0.00 | 0.00 | 0.00 | 70 | 1012.8 |
| 20260502224519 | 63 | 300 | 4.3 | 9.6 | 0.00 | 0.00 | 0.00 | 67 | 1012.9 |
| 20260502223020 | 63 | 264 | 3.5 | 8.7 | 0.00 | 0.00 | 0.00 | 68 | 1013.3 |
| 20260502221521 | 62 | 291 | 5.2 | 8.7 | 0.00 | 0.00 | 0.00 | 66 | 1013.7 |
| 20260502220031 | 63 | 248 | 4.3 | 8.7 | 0.00 | 0.00 | 0.00 | 68 | 1013.8 |
| 20260502214525 | 62 | 270 | 3.5 | 7.0 | 0.00 | 0.00 | 0.00 | 68 | 1013.9 |
| 20260502213025 | 62 | 263 | 3.5 | 7.0 | 0.00 | 0.00 | 0.00 | 67 | 1014.2 |